Change the Weather History Date:

Wednesday, January 2, 2013

  Actual Average Record
Temperature  
Mean Temperature 9 °F -  
Max Temperature 27 °F 37 °F 59 °F (2006)
Min Temperature -9 °F 11 °F -17 °F (2011)
Degree Days  
Heating Degree Days 56    
Moisture  
Dew Point -1 °F    
Average Humidity 73    
Maximum Humidity 91    
Minimum Humidity 49    
Precipitation  
Precipitation 0.00 in - - ()
Sea Level Pressure  
Sea Level Pressure 30.37 in    
Wind  
Wind Speed 3 mph (SSW)    
Max Wind Speed 7 mph    
Max Gust Speed -    
Visibility 10 miles    
Events      
Averages and records for this station are not official NWS values.
T = Trace of Precipitation, MM = Missing Value Source: NWS Daily Summary

Daily Weather History Graph

Daily Weather History Graph

Search for Another Location

Airport or City:

Trip Planner

Search our weather history database for the weather conditions in past years. The results will help you decide how hot, cold, wet, or windy it might be!

Date:

Astronomy

Jan. 02, 2013 Rise Set
Actual Time 7:26 AM MST 5:14 PM MST
Civil Twilight 6:57 AM MST 5:43 PM MST
Nautical Twilight 6:26 AM MST 6:15 PM MST
Astronomical Twilight 5:55 AM MST 6:46 PM MST
Moon 10:38 PM MST (1/2) 10:20 AM MST (1/2)
Length of Visible Light 10h 45m
Length of Day
9h 48m
Waning Gibbous, 74% of the Moon is Illuminated
Jan 2
Waning Gibbous
Jan 4
Last Quarter
Jan 11
New
Jan 18
First Quarter
Jan 26
Full

Hourly Weather History & Observations

Time (MST) Temp. Windchill Dew Point Humidity Pressure Visibility Wind Dir Wind Speed Gust Speed Precip Events Conditions
12:53 AM -6.0 °F -18.6 °F -9.9 °F 83% 30.38 in 10.0 mi SSW 5.8 mph - N/A   Clear
1:53 AM -7.1 °F -19.9 °F -11.0 °F 83% 30.38 in 10.0 mi SSW 5.8 mph - N/A   Clear
2:53 AM -6.0 °F - -11.0 °F 79% 30.39 in 10.0 mi Calm Calm - N/A   Clear
3:53 AM -4.0 °F - -9.0 °F 79% 30.35 in 10.0 mi Calm Calm - N/A   Clear
4:53 AM -9.0 °F -22.3 °F -14.1 °F 79% 30.38 in 10.0 mi South 5.8 mph - N/A   Clear
5:53 AM -9.0 °F - -13.0 °F 83% 30.40 in 10.0 mi Calm Calm - N/A   Clear
6:53 AM -9.9 °F -19.2 °F -15.0 °F 78% 30.42 in 10.0 mi SSW 3.5 mph - N/A   Clear
7:53 AM -9.0 °F - -14.1 °F 79% 30.46 in 10.0 mi Calm Calm - N/A   Clear
8:53 AM -2.0 °F - -6.0 °F 83% 30.47 in 10.0 mi Calm Calm - N/A   Clear
9:53 AM 3.0 °F - 1.0 °F 91% 30.45 in 10.0 mi Calm Calm - N/A   Clear
10:53 AM 14.0 °F - 3.9 °F 64% 30.39 in 10.0 mi Calm Calm - N/A   Clear
11:53 AM 19.0 °F 12.3 °F 6.1 °F 57% 30.35 in 10.0 mi SW 4.6 mph - N/A   Clear
12:53 PM 24.1 °F 16.0 °F 10.0 °F 55% 30.29 in 10.0 mi SW 6.9 mph - N/A   Clear
1:53 PM 26.1 °F - 10.9 °F 53% 30.27 in 10.0 mi Calm Calm - N/A   Clear
2:53 PM 27.0 °F 21.6 °F 10.0 °F 49% 30.26 in 10.0 mi Variable 4.6 mph - N/A   Clear
3:53 PM 26.1 °F - 10.0 °F 51% 30.27 in 10.0 mi Calm Calm - N/A   Clear
4:53 PM 24.1 °F 18.2 °F 10.0 °F 55% 30.29 in 10.0 mi East 4.6 mph - N/A   Clear
5:53 PM 19.0 °F 13.9 °F 9.0 °F 65% 30.33 in 10.0 mi ENE 3.5 mph - N/A   Clear
6:53 PM 14.0 °F - 7.0 °F 74% 30.36 in 10.0 mi Calm Calm - N/A   Clear
7:53 PM 10.0 °F - 5.0 °F 80% 30.38 in 10.0 mi Calm Calm - N/A   Clear
8:53 PM 5.0 °F - 1.0 °F 84% 30.39 in 10.0 mi Calm Calm - N/A   Clear
9:53 PM 1.9 °F - -0.9 °F 88% 30.40 in 9.0 mi Calm Calm - N/A   Clear
10:53 PM 1.9 °F - -2.0 °F 83% 30.36 in 10.0 mi Calm Calm - N/A   Clear
11:53 PM -2.0 °F -10.1 °F -6.0 °F 83% 30.35 in 9.0 mi NNW 3.5 mph - N/A   Clear